Weather History for Shreveport Downtown, LA

Change the Weather History Date:

Saturday, July 20, 2013

  Actual Average (KSHV) Record (KSHV)
Temperature  
Mean Temperature 82 °F 83 °F  
Max Temperature 93 °F 94 °F 101 °F (2000)
Min Temperature 73 °F 73 °F 65 °F (1910)
Degree Days  
Heating Degree Days 0 0  
Month to date heating degree days 0  
Since 1 June heating degree days 0  
Since 1 July heating degree days 0  
Cooling Degree Days 17 18  
Month to date cooling degree days 355  
Year to date cooling degree days 1197  
Since 1 June cooling degree days 799  
Growing Degree Days 32 (Base 50)    
Moisture  
Dew Point 69 °F    
Average Humidity 66    
Maximum Humidity 87    
Minimum Humidity 39    
Precipitation  
Precipitation 0.00 in 0.10 in 4.94 in (1917)
Month to date precipitation 2.49  
Year to date precipitation 30.10  
Snow  
Snow 0.00 in - - ()
Month to date snowfall  
Since 1 June snowfall  
Since 1 July snowfall  
Snow Depth -    
Sea Level Pressure  
Sea Level Pressure 29.94 in    
Wind  
Wind Speed 5 mph (SSW)    
Max Wind Speed 18 mph    
Max Gust Speed 23 mph    
Visibility 10 miles    
Events      
T = Trace of Precipitation, MM = Missing Value Source: NWS Daily Summary

Daily Weather History Graph

Daily Weather History Graph

Search for Another Location

Airport:

Trip Planner

Search our weather history database for the weather conditions in past years. The results will help you decide how hot, cold, wet, or windy it might be!

Date:

Astronomy

Jul. 20, 2013 Rise Set
Actual Time 6:21 AM CDT 8:20 PM CDT
Civil Twilight 5:53 AM CDT 8:48 PM CDT
Nautical Twilight 5:20 AM CDT 9:21 PM CDT
Astronomical Twilight 4:44 AM CDT 9:57 PM CDT
Moon 6:25 PM CDT (7/20) 4:01 AM CDT (7/20)
Length of Visible Light 14h 54m
Length of Day
13h 59m
Waxing Gibbous, 94% of the Moon is Illuminated
Jul 20
Waxing Gibbous
Jul 22
Full
Jul 29
Last Quarter
Aug 6
New
Aug 14
First Quarter

Hourly Weather History & Observations

Time (CDT) Temp. Heat Index Dew Point Humidity Pressure Visibility Wind Dir Wind Speed Gust Speed Precip Events Conditions
12:53 AM 77.0 °F - 71.1 °F 82% 29.97 in 10.0 mi SE 5.8 mph - N/A   Clear
1:53 AM 77.0 °F - 71.1 °F 82% 29.97 in 10.0 mi SW 6.9 mph - N/A   Clear
2:53 AM 75.9 °F - 70.0 °F 82% 29.97 in 10.0 mi SW 3.5 mph - N/A   Clear
3:53 AM 75.9 °F - 70.0 °F 82% 29.98 in 10.0 mi SW 4.6 mph - N/A   Clear
4:53 AM 73.9 °F - 69.1 °F 85% 29.97 in 10.0 mi Calm Calm - N/A   Clear
5:53 AM 73.9 °F - 69.1 °F 85% 29.98 in 10.0 mi Calm Calm - N/A   Clear
6:53 AM 73.9 °F - 70.0 °F 87% 29.98 in 10.0 mi Calm Calm - N/A   Clear
7:53 AM 77.0 °F - 71.1 °F 82% 29.97 in 10.0 mi West 5.8 mph - N/A   Clear
8:11 AM 78.8 °F - 71.6 °F 78% 29.98 in 10.0 mi WSW 4.6 mph - N/A   Partly Cloudy
8:53 AM 80.1 °F 82.9 °F 69.1 °F 69% 29.98 in 10.0 mi West 8.1 mph - N/A   Clear
9:53 AM 82.0 °F 85.5 °F 69.1 °F 65% 29.98 in 10.0 mi Calm Calm - N/A   Clear
10:53 AM 84.9 °F 88.8 °F 69.1 °F 59% 29.98 in 10.0 mi Variable 3.5 mph - N/A   Partly Cloudy
11:53 AM 86.0 °F 90.1 °F 69.1 °F 57% 29.98 in 10.0 mi Calm Calm - N/A   Scattered Clouds
12:53 PM 88.0 °F 90.7 °F 66.9 °F 49% 29.96 in 10.0 mi Calm Calm - N/A   Clear
1:53 PM 90.0 °F 93.6 °F 68.0 °F 48% 29.94 in 10.0 mi SE 4.6 mph - N/A   Scattered Clouds
2:53 PM 90.0 °F 92.8 °F 66.9 °F 46% 29.92 in 10.0 mi Calm Calm - N/A   Clear
3:53 PM 91.9 °F 93.3 °F 64.0 °F 39% 29.90 in 10.0 mi SE 8.1 mph - N/A   Clear
4:53 PM 91.0 °F 94.3 °F 66.9 °F 45% 29.88 in 10.0 mi SE 8.1 mph - N/A   Clear
5:53 PM 91.9 °F 95.4 °F 66.9 °F 44% 29.86 in 10.0 mi South 10.4 mph - N/A   Partly Cloudy
6:53 PM 89.1 °F 92.9 °F 68.0 °F 50% 29.85 in 10.0 mi SE 5.8 mph - N/A   Overcast
7:53 PM 84.9 °F 88.2 °F 68.0 °F 57% 29.88 in 10.0 mi SW 18.4 mph 23.0 mph N/A   Clear
8:53 PM 82.0 °F 84.9 °F 68.0 °F 62% 29.90 in 10.0 mi SW 15.0 mph - N/A   Clear
9:53 PM 80.1 °F 82.7 °F 68.0 °F 67% 29.91 in 10.0 mi SW 10.4 mph - N/A   Clear
10:53 PM 79.0 °F - 69.1 °F 72% 29.94 in 10.0 mi SSW 8.1 mph - N/A   Clear
11:53 PM 77.0 °F - 70.0 °F 79% 29.94 in 10.0 mi SW 5.8 mph - N/A   Clear